Weather in Zarechye

Russia / Kaliningrad Oblast     54°36′51″N   21°02′03″E
temp.,
°C
wind,
m/s
gust,
m/s
humid.,
%
clouds,
%
prec.,
mm/h
press.,
hPa
HPBL,
m
20 september, mon
mon2023:00+8ne4971100 0.0 1017994
02:00+8ne4872100 0.1 1018880
05:00+7nne4875100 0.0 1018899
08:00+7nne5874100 0.0 10191043
11:00+7ne477999 0.0 1020711
14:00+11n5758100 0.1 10191371
17:00+12nnw575519 0.0 10191336
20:00+7nw36755 0.0 1020106
21 september, tue
tue2123:00+5n22784 0.0 102121
02:00+4n23895 0.0 102148
05:00+3n229347 0.0 102219
08:00+8n3770100 0.0 1023964
11:00+12nnw585377 0.0 10231644
14:00+12nw4757100 0.0 10221564
17:00+12nw5964100 0.1 1022866
20:00+10nw3872100 0.1 1022278
22 september, wed
wed2223:00+9nw2582100 0.2 1022134
02:00+9nnw1277100 0.2 102224
05:00+8nnw237396 0.0 102269
08:00+8ne237480 0.0 1022134
11:00+12n355794 0.0 10221011
14:00+13n57489 0.0 10221458
17:00+12n45540 0.0 1021988
20:00+7nnw22774 0.0 102231
23 september, thu
thu2323:00+5sse018746 0.0 102110
02:00+6ssw1186100 0.0 102010
05:00+5ssw228995 0.0 101823
08:00+8ssw3577100 0.0 1017156
11:00+13ssw456595 0.0 1015701
14:00+16sw4561100 0.0 10121295
17:00+16ssw4866100 0.0 1008738
20:00+13s51375100 0.0 1005500
24 september, fri
fri2423:00+14s71669100 0.0 1001790
02:00+14sw81574100 0.4 9971029
05:00+10w814765 9.4 9961069
08:00+9sw101883100 9.4 9951203
11:00+11w12217995 1.3 9961772
14:00+13w11207825 3.3 9981796
17:00+12wnw11188073 1.3 10011413
20:00+11wnw81581100 1.8 1003955